Satellite-Ground Cal/Val Region Overpasses Predictions

Prediction of Satellite NPP Overpassing Cal/Val Region: PacNW

Region Location: (Latitude: 10.00, Longitude: 139.50) to (Latitude: 22.70, Longitude: 165.60).

Table of predicted overpasses for the next 14.0 days since TLE Epoch: 7/28/2017
Interval Starting Time Starting Location Ending Time Ending Location
1 07/29/2017 03:42:33 ( 10.02, 144.13) 07/29/2017 03:46:08 ( 22.65, 141.12)
2 07/29/2017 14:34:16 ( 18.02, 165.60) 07/29/2017 14:36:32 ( 10.04, 163.73)
3 07/29/2017 16:14:27 ( 22.65, 141.36) 07/29/2017 16:16:37 ( 15.03, 139.51)
4 07/30/2017 03:23:33 ( 10.05, 148.87) 07/30/2017 03:27:08 ( 22.68, 145.87)
5 07/30/2017 15:55:25 ( 22.68, 146.12) 07/30/2017 15:59:01 ( 10.01, 143.10)
6 07/31/2017 03:04:31 ( 10.02, 153.64) 07/31/2017 03:08:06 ( 22.65, 150.63)
7 07/31/2017 15:36:25 ( 22.65, 150.87) 07/31/2017 15:40:00 ( 10.04, 147.87)
8 08/01/2017 02:45:31 ( 10.05, 158.38) 08/01/2017 02:49:06 ( 22.68, 155.38)
9 08/01/2017 15:17:23 ( 22.68, 155.63) 08/01/2017 15:20:59 ( 10.01, 152.61)
10 08/02/2017 02:26:29 ( 10.03, 163.15) 08/02/2017 02:30:04 ( 22.65, 160.14)
11 08/02/2017 14:58:23 ( 22.65, 160.38) 08/02/2017 15:01:58 ( 10.04, 157.37)
12 08/03/2017 02:10:15 ( 19.81, 165.60) 08/03/2017 02:11:04 ( 22.68, 164.89)
13 08/03/2017 03:48:59 ( 10.06, 142.52) 08/03/2017 03:52:34 ( 22.68, 139.51)
14 08/03/2017 14:39:22 ( 22.68, 165.14) 08/03/2017 14:42:58 ( 10.01, 162.12)
15 08/03/2017 16:20:52 ( 22.68, 139.77) 08/03/2017 16:21:10 ( 21.63, 139.50)
16 08/04/2017 03:29:57 ( 10.03, 147.28) 08/04/2017 03:33:32 ( 22.65, 144.27)
17 08/04/2017 16:01:51 ( 22.65, 144.51) 08/04/2017 16:05:26 ( 10.03, 141.51)
18 08/05/2017 03:10:56 ( 10.00, 152.04) 08/05/2017 03:14:32 ( 22.69, 149.02)
19 08/05/2017 15:42:50 ( 22.68, 149.27) 08/05/2017 15:46:26 ( 10.00, 146.26)
20 08/06/2017 02:51:55 ( 10.04, 156.79) 08/06/2017 02:55:30 ( 22.66, 153.78)
21 08/06/2017 15:23:49 ( 22.65, 154.02) 08/06/2017 15:27:24 ( 10.03, 151.02)
22 08/07/2017 02:32:54 ( 10.01, 161.55) 08/07/2017 02:36:30 ( 22.69, 158.53)
23 08/07/2017 15:04:48 ( 22.68, 158.78) 08/07/2017 15:08:23 ( 10.06, 155.78)
24 08/08/2017 02:14:45 ( 13.10, 165.59) 08/08/2017 02:17:28 ( 22.67, 163.29)
25 08/08/2017 03:55:23 ( 10.04, 140.92) 08/08/2017 03:57:07 ( 16.15, 139.50)
26 08/08/2017 14:45:47 ( 22.64, 163.53) 08/08/2017 14:49:22 ( 10.03, 160.53)
27 08/09/2017 03:36:22 ( 10.02, 145.68) 08/09/2017 03:39:57 ( 22.64, 142.68)
28 08/09/2017 14:29:58 ( 11.40, 165.60) 08/09/2017 14:30:21 ( 10.05, 165.29)
29 08/09/2017 16:08:16 ( 22.67, 142.92) 08/09/2017 16:11:51 ( 10.05, 139.91)
30 08/10/2017 03:17:21 ( 10.05, 150.43) 08/10/2017 03:20:56 ( 22.68, 147.42)
31 08/10/2017 15:49:14 ( 22.70, 147.68) 08/10/2017 15:52:50 ( 10.02, 144.66)
32 08/11/2017 02:58:20 ( 10.03, 155.19) 08/11/2017 03:01:55 ( 22.65, 152.19)


NCC Satellite Cal/Val Overpasses Prediction Service
